Year,Month,Day,Hour,Minute,Value (Times are PST for temperature in C)
2015,06,24,00,00,17.60
2015,06,24,00,01,17.60
2015,06,24,00,02,17.50
2015,06,24,00,03,17.50
2015,06,24,00,04,17.50
2015,06,24,00,05,17.40
2015,06,24,00,06,17.40
2015,06,24,00,07,17.40
2015,06,24,00,08,17.40
2015,06,24,00,09,17.40
2015,06,24,00,10,17.40
2015,06,24,00,11,17.30
2015,06,24,00,12,17.30
2015,06,24,00,13,17.30
2015,06,24,00,14,17.30
2015,06,24,00,15,17.30
2015,06,24,00,16,17.30
2015,06,24,00,17,17.30
2015,06,24,00,18,17.20
2015,06,24,00,19,17.20
2015,06,24,00,20,17.20
2015,06,24,00,21,17.20
2015,06,24,00,22,17.20
2015,06,24,00,23,17.20
2015,06,24,00,24,17.20
2015,06,24,00,25,17.20
2015,06,24,00,26,17.20
2015,06,24,00,27,17.20
2015,06,24,00,28,17.20
2015,06,24,00,29,17.20
2015,06,24,00,30,17.10
2015,06,24,00,31,17.10
2015,06,24,00,32,17.00
2015,06,24,00,33,17.00
2015,06,24,00,34,16.90
2015,06,24,00,35,16.80
2015,06,24,00,36,16.80
2015,06,24,00,37,16.80
2015,06,24,00,38,16.70
2015,06,24,00,39,16.70
2015,06,24,00,40,16.70
2015,06,24,00,41,16.70
2015,06,24,00,42,16.60
2015,06,24,00,43,16.60
2015,06,24,00,44,16.60
2015,06,24,00,45,16.70
2015,06,24,00,46,16.70
2015,06,24,00,47,16.70
2015,06,24,00,48,16.70
2015,06,24,00,49,16.70
2015,06,24,00,50,16.70
2015,06,24,00,51,16.70
2015,06,24,00,52,16.70
2015,06,24,00,53,16.70
2015,06,24,00,54,16.70
2015,06,24,00,55,16.70
2015,06,24,00,56,16.60
2015,06,24,00,57,16.60
2015,06,24,00,58,16.60
2015,06,24,00,59,16.50
2015,06,24,01,00,16.50
2015,06,24,01,01,16.40
2015,06,24,01,02,16.40
2015,06,24,01,03,16.40
2015,06,24,01,04,16.40
2015,06,24,01,05,16.30
2015,06,24,01,06,16.20
2015,06,24,01,07,16.10
2015,06,24,01,08,16.00
2015,06,24,01,09,16.00
2015,06,24,01,10,15.90
2015,06,24,01,11,15.90
2015,06,24,01,12,15.90
2015,06,24,01,13,15.90
2015,06,24,01,14,15.90
2015,06,24,01,15,15.90
2015,06,24,01,16,15.90
2015,06,24,01,17,15.90
2015,06,24,01,18,15.90
2015,06,24,01,19,16.00
2015,06,24,01,20,16.00
2015,06,24,01,21,15.90
2015,06,24,01,22,15.90
2015,06,24,01,23,15.90
2015,06,24,01,24,15.90
2015,06,24,01,25,15.80
2015,06,24,01,26,15.80
2015,06,24,01,27,15.80
2015,06,24,01,28,15.80
2015,06,24,01,29,15.80
2015,06,24,01,30,15.80
2015,06,24,01,31,15.70
2015,06,24,01,32,15.70
2015,06,24,01,33,15.70
2015,06,24,01,34,15.60
2015,06,24,01,35,15.60
2015,06,24,01,36,15.50
2015,06,24,01,37,15.40
2015,06,24,01,38,15.40
2015,06,24,01,39,15.30
2015,06,24,01,40,15.20
2015,06,24,01,41,15.20
2015,06,24,01,42,15.20
2015,06,24,01,43,15.10
2015,06,24,01,44,15.10
2015,06,24,01,45,15.10
2015,06,24,01,46,15.00
2015,06,24,01,47,15.00
2015,06,24,01,48,15.00
2015,06,24,01,49,14.90
2015,06,24,01,50,14.90
2015,06,24,01,51,14.90
2015,06,24,01,52,14.90
2015,06,24,01,53,14.80
2015,06,24,01,54,14.80
2015,06,24,01,55,14.80
2015,06,24,01,56,14.80
2015,06,24,01,57,14.80
2015,06,24,01,58,14.80
2015,06,24,01,59,14.80
2015,06,24,02,00,14.80
2015,06,24,02,01,14.80
2015,06,24,02,02,14.80
2015,06,24,02,03,14.80
2015,06,24,02,04,14.90
2015,06,24,02,05,14.90
2015,06,24,02,06,14.90
2015,06,24,02,07,14.90
2015,06,24,02,08,15.00
2015,06,24,02,09,15.00
2015,06,24,02,10,15.10
2015,06,24,02,11,15.10
2015,06,24,02,12,15.10
2015,06,24,02,13,15.10
2015,06,24,02,14,15.20
2015,06,24,02,15,15.20
2015,06,24,02,16,15.20
2015,06,24,02,17,15.30
2015,06,24,02,18,15.30
2015,06,24,02,19,15.30
2015,06,24,02,20,15.40
2015,06,24,02,21,15.40
2015,06,24,02,22,15.40
2015,06,24,02,23,15.40
2015,06,24,02,24,15.50
2015,06,24,02,25,15.50
2015,06,24,02,26,15.50
2015,06,24,02,27,15.50
2015,06,24,02,28,15.50
2015,06,24,02,29,15.60
2015,06,24,02,30,15.50
2015,06,24,02,31,15.50
2015,06,24,02,32,15.50
2015,06,24,02,33,15.50
2015,06,24,02,34,15.50
2015,06,24,02,35,15.50
2015,06,24,02,36,15.40
2015,06,24,02,37,15.40
2015,06,24,02,38,15.40
2015,06,24,02,39,15.40
2015,06,24,02,40,15.40
2015,06,24,02,41,15.30
2015,06,24,02,42,15.30
2015,06,24,02,43,15.30
2015,06,24,02,44,15.30
2015,06,24,02,45,15.30
2015,06,24,02,46,15.30
2015,06,24,02,47,15.30
2015,06,24,02,48,15.30
2015,06,24,02,49,15.30
2015,06,24,02,50,15.30
2015,06,24,02,51,15.30
2015,06,24,02,52,15.30
2015,06,24,02,53,15.30
2015,06,24,02,54,15.30
2015,06,24,02,55,15.30
2015,06,24,02,56,15.30
2015,06,24,02,57,15.30
2015,06,24,02,58,15.30
2015,06,24,02,59,15.30
2015,06,24,03,00,15.30
2015,06,24,03,01,15.30
2015,06,24,03,02,15.30
2015,06,24,03,03,15.30
2015,06,24,03,04,15.40
2015,06,24,03,05,15.30
2015,06,24,03,06,15.30
2015,06,24,03,07,15.30
2015,06,24,03,08,15.20
2015,06,24,03,09,15.20
2015,06,24,03,10,15.10
2015,06,24,03,11,15.10
2015,06,24,03,12,15.10
2015,06,24,03,13,15.10
2015,06,24,03,14,15.00
2015,06,24,03,15,15.00
2015,06,24,03,16,15.00
2015,06,24,03,17,14.90
2015,06,24,03,18,14.90
2015,06,24,03,19,14.90
2015,06,24,03,20,14.90
2015,06,24,03,21,14.80
2015,06,24,03,22,14.80
2015,06,24,03,23,14.80
2015,06,24,03,24,14.70
2015,06,24,03,25,14.70
2015,06,24,03,26,14.70
2015,06,24,03,27,14.60
2015,06,24,03,28,14.60
2015,06,24,03,29,14.50
2015,06,24,03,30,14.50
2015,06,24,03,31,14.50
2015,06,24,03,32,14.40
2015,06,24,03,33,14.40
2015,06,24,03,34,14.40
2015,06,24,03,35,14.30
2015,06,24,03,36,14.30
2015,06,24,03,37,14.30
2015,06,24,03,38,14.30
2015,06,24,03,39,14.30
2015,06,24,03,40,14.30
2015,06,24,03,41,14.30
2015,06,24,03,42,14.30
2015,06,24,03,43,14.20
2015,06,24,03,44,14.20
2015,06,24,03,45,14.20
2015,06,24,03,46,14.10
2015,06,24,03,47,14.10
2015,06,24,03,48,14.00
2015,06,24,03,49,14.00
2015,06,24,03,50,13.90
2015,06,24,03,51,14.00
2015,06,24,03,52,14.00
2015,06,24,03,53,14.10
2015,06,24,03,54,14.10
2015,06,24,03,55,14.10
2015,06,24,03,56,14.10
2015,06,24,03,57,14.10
2015,06,24,03,58,14.10
2015,06,24,03,59,14.10
2015,06,24,04,00,14.00
2015,06,24,04,01,14.00
2015,06,24,04,02,13.90
2015,06,24,04,03,13.90
2015,06,24,04,04,13.80
2015,06,24,04,05,13.80
2015,06,24,04,06,13.80
2015,06,24,04,07,13.70
2015,06,24,04,08,13.70
2015,06,24,04,09,13.70
2015,06,24,04,10,13.70
2015,06,24,04,11,13.70
2015,06,24,04,12,13.60
2015,06,24,04,13,13.60
2015,06,24,04,14,13.60
2015,06,24,04,15,13.60
2015,06,24,04,16,13.60
2015,06,24,04,17,13.60
2015,06,24,04,18,13.60
2015,06,24,04,19,13.70
2015,06,24,04,20,13.70
2015,06,24,04,21,13.70
2015,06,24,04,22,13.70
2015,06,24,04,23,13.70
2015,06,24,04,24,13.70
2015,06,24,04,25,13.70
2015,06,24,04,26,13.70
2015,06,24,04,27,13.70
2015,06,24,04,28,13.70
2015,06,24,04,29,13.70
2015,06,24,04,30,13.80
2015,06,24,04,31,13.80
2015,06,24,04,32,13.80
2015,06,24,04,33,13.80
2015,06,24,04,34,13.80
2015,06,24,04,35,13.80
2015,06,24,04,36,13.80
2015,06,24,04,37,13.80
2015,06,24,04,38,13.80
2015,06,24,04,39,13.80
2015,06,24,04,40,13.80
2015,06,24,04,41,13.80
2015,06,24,04,42,13.80
2015,06,24,04,43,13.80
2015,06,24,04,44,13.80
2015,06,24,04,45,13.80
2015,06,24,04,46,13.80
2015,06,24,04,47,13.80
2015,06,24,04,48,13.80
2015,06,24,04,49,13.80
2015,06,24,04,50,13.70
2015,06,24,04,51,13.80
2015,06,24,04,52,13.80
2015,06,24,04,53,13.80
2015,06,24,04,54,13.80
2015,06,24,04,55,13.80
2015,06,24,04,56,13.80
2015,06,24,04,57,13.80
2015,06,24,04,58,13.80
2015,06,24,04,59,13.80
2015,06,24,05,00,13.80
2015,06,24,05,01,13.80
2015,06,24,05,02,13.80
2015,06,24,05,03,13.80
2015,06,24,05,04,13.90
2015,06,24,05,05,13.90
2015,06,24,05,06,13.90
2015,06,24,05,07,13.80
2015,06,24,05,08,13.80
2015,06,24,05,09,13.80
2015,06,24,05,10,13.80
2015,06,24,05,11,13.80
2015,06,24,05,12,13.80
2015,06,24,05,13,13.80
2015,06,24,05,14,13.80
2015,06,24,05,15,13.80
2015,06,24,05,16,13.80
2015,06,24,05,17,13.80
2015,06,24,05,18,13.80
2015,06,24,05,19,13.80
2015,06,24,05,20,13.80
2015,06,24,05,21,13.80
2015,06,24,05,22,13.80
2015,06,24,05,23,13.70
2015,06,24,05,24,13.70
2015,06,24,05,25,13.70
2015,06,24,05,26,13.70
2015,06,24,05,27,13.70
2015,06,24,05,28,13.70
2015,06,24,05,29,13.70
2015,06,24,05,30,13.70
2015,06,24,05,31,13.70
2015,06,24,05,32,13.70
2015,06,24,05,33,13.70
2015,06,24,05,34,13.70
2015,06,24,05,35,13.70
2015,06,24,05,36,13.70
2015,06,24,05,37,13.70
2015,06,24,05,38,13.70
2015,06,24,05,39,13.70
2015,06,24,05,40,13.70
2015,06,24,05,41,13.70
2015,06,24,05,42,13.70
2015,06,24,05,43,13.70
2015,06,24,05,44,13.70
2015,06,24,05,45,13.70
2015,06,24,05,46,13.70
2015,06,24,05,47,13.70
2015,06,24,05,48,13.70
2015,06,24,05,49,13.70
2015,06,24,05,50,13.70
2015,06,24,05,51,13.70
2015,06,24,05,52,13.70
2015,06,24,05,53,13.70
2015,06,24,05,54,13.70
2015,06,24,05,55,13.70
2015,06,24,05,56,13.70
2015,06,24,05,57,13.70
2015,06,24,05,58,13.60
2015,06,24,05,59,13.60
2015,06,24,06,00,13.60
2015,06,24,06,01,13.60
2015,06,24,06,02,13.60
2015,06,24,06,03,13.60
2015,06,24,06,04,13.60
2015,06,24,06,05,13.60
2015,06,24,06,06,13.60
2015,06,24,06,07,13.60
2015,06,24,06,08,13.60
2015,06,24,06,09,13.60
2015,06,24,06,10,13.60
2015,06,24,06,11,13.60
2015,06,24,06,12,13.70
2015,06,24,06,13,13.70
2015,06,24,06,14,13.70
2015,06,24,06,15,13.70
2015,06,24,06,16,13.70
2015,06,24,06,17,13.70
2015,06,24,06,18,13.70
2015,06,24,06,19,13.80
2015,06,24,06,20,13.80
2015,06,24,06,21,13.80
2015,06,24,06,22,13.80
2015,06,24,06,23,13.80
2015,06,24,06,24,13.80
2015,06,24,06,25,13.80
2015,06,24,06,26,13.80
2015,06,24,06,27,13.80
2015,06,24,06,28,13.80
2015,06,24,06,29,13.80
2015,06,24,06,30,13.80
2015,06,24,06,31,13.80
2015,06,24,06,32,13.80
2015,06,24,06,33,13.80
2015,06,24,06,34,13.80
2015,06,24,06,35,13.80
2015,06,24,06,36,13.80
2015,06,24,06,37,13.80
2015,06,24,06,38,13.80
2015,06,24,06,39,13.70
2015,06,24,06,40,13.70
2015,06,24,06,41,13.70
2015,06,24,06,42,13.70
2015,06,24,06,43,13.70
2015,06,24,06,44,13.70
2015,06,24,06,45,13.70
2015,06,24,06,46,13.70
2015,06,24,06,47,13.70
2015,06,24,06,48,13.70
2015,06,24,06,49,13.70
2015,06,24,06,50,13.60
2015,06,24,06,51,13.60
2015,06,24,06,52,13.60
2015,06,24,06,53,13.60
2015,06,24,06,54,13.60
2015,06,24,06,55,13.60
2015,06,24,06,56,13.60
2015,06,24,06,57,13.60
2015,06,24,06,58,13.60
2015,06,24,06,59,13.60
2015,06,24,07,00,13.60
2015,06,24,07,01,13.60
2015,06,24,07,02,13.70
2015,06,24,07,03,13.70
2015,06,24,07,04,13.70
2015,06,24,07,05,13.80
2015,06,24,07,06,13.80
2015,06,24,07,07,13.90
2015,06,24,07,08,14.00
2015,06,24,07,09,14.00
2015,06,24,07,10,14.10
2015,06,24,07,11,14.20
2015,06,24,07,12,14.20
2015,06,24,07,13,14.30
2015,06,24,07,14,14.30
2015,06,24,07,15,14.40
2015,06,24,07,16,14.50
2015,06,24,07,17,14.50
2015,06,24,07,18,14.60
2015,06,24,07,19,14.70
2015,06,24,07,20,14.70
2015,06,24,07,21,14.80
2015,06,24,07,22,14.90
2015,06,24,07,23,15.00
2015,06,24,07,24,15.20
2015,06,24,07,25,15.30
2015,06,24,07,26,15.30
2015,06,24,07,27,15.40
2015,06,24,07,28,15.30
2015,06,24,07,29,15.20
2015,06,24,07,30,15.00
2015,06,24,07,31,14.90
2015,06,24,07,32,14.70
2015,06,24,07,33,14.60
2015,06,24,07,34,14.50
2015,06,24,07,35,14.40
2015,06,24,07,36,14.30
2015,06,24,07,37,14.30
2015,06,24,07,38,14.30
2015,06,24,07,39,14.30
2015,06,24,07,40,14.20
2015,06,24,07,41,14.20
2015,06,24,07,42,14.20
2015,06,24,07,43,14.20
2015,06,24,07,44,14.20
2015,06,24,07,45,14.20
2015,06,24,07,46,14.20
2015,06,24,07,47,14.10
2015,06,24,07,48,14.10
2015,06,24,07,49,14.00
2015,06,24,07,50,14.00
2015,06,24,07,51,14.00
2015,06,24,07,52,14.10
2015,06,24,07,53,14.10
2015,06,24,07,54,14.10
2015,06,24,07,55,14.10
2015,06,24,07,56,14.10
2015,06,24,07,57,14.20
2015,06,24,07,58,14.20
2015,06,24,07,59,14.30
2015,06,24,08,00,14.30
2015,06,24,08,01,14.40
2015,06,24,08,02,14.50
2015,06,24,08,03,14.60
2015,06,24,08,04,14.70
2015,06,24,08,05,14.80
2015,06,24,08,06,15.00
2015,06,24,08,07,15.20
2015,06,24,08,08,15.30
2015,06,24,08,09,15.40
2015,06,24,08,10,15.50
2015,06,24,08,11,15.60
2015,06,24,08,12,15.50
2015,06,24,08,13,15.50
2015,06,24,08,14,15.30
2015,06,24,08,15,15.20
2015,06,24,08,16,15.20
2015,06,24,08,17,15.20
2015,06,24,08,18,15.20
2015,06,24,08,19,15.10
2015,06,24,08,20,15.20
2015,06,24,08,21,15.20
2015,06,24,08,22,15.20
2015,06,24,08,23,15.20
2015,06,24,08,24,15.30
2015,06,24,08,25,15.40
2015,06,24,08,26,15.50
2015,06,24,08,27,15.50
2015,06,24,08,28,15.50
2015,06,24,08,29,15.30
2015,06,24,08,30,15.20
2015,06,24,08,31,15.00
2015,06,24,08,32,14.90
2015,06,24,08,33,14.70
2015,06,24,08,34,14.50
2015,06,24,08,35,14.40
2015,06,24,08,36,14.30
2015,06,24,08,37,14.20
2015,06,24,08,38,14.20
2015,06,24,08,39,14.10
2015,06,24,08,40,14.10
2015,06,24,08,41,14.20
2015,06,24,08,42,14.20
2015,06,24,08,43,14.20
2015,06,24,08,44,14.20
2015,06,24,08,45,14.20
2015,06,24,08,46,14.10
2015,06,24,08,47,14.10
2015,06,24,08,48,14.10
2015,06,24,08,49,14.00
2015,06,24,08,50,14.10
2015,06,24,08,51,14.10
2015,06,24,08,52,14.10
2015,06,24,08,53,14.20
2015,06,24,08,54,14.30
2015,06,24,08,55,14.40
2015,06,24,08,56,14.40
2015,06,24,08,57,14.50
2015,06,24,08,58,14.60
2015,06,24,08,59,14.70
2015,06,24,09,00,14.80
2015,06,24,09,01,15.00
2015,06,24,09,02,15.10
2015,06,24,09,03,15.20
2015,06,24,09,04,15.30
2015,06,24,09,05,15.40
2015,06,24,09,06,15.40
2015,06,24,09,07,15.50
2015,06,24,09,08,15.50
2015,06,24,09,09,15.50
2015,06,24,09,10,15.40
2015,06,24,09,11,15.40
2015,06,24,09,12,15.30
2015,06,24,09,13,15.20
2015,06,24,09,14,15.10
2015,06,24,09,15,14.80
2015,06,24,09,16,14.60
2015,06,24,09,17,14.40
2015,06,24,09,18,14.30
2015,06,24,09,19,14.20
2015,06,24,09,20,14.10
2015,06,24,09,21,14.10
2015,06,24,09,22,14.10
2015,06,24,09,23,14.10
2015,06,24,09,24,14.10
2015,06,24,09,25,14.10
2015,06,24,09,26,14.20
2015,06,24,09,27,14.30
2015,06,24,09,28,14.30
2015,06,24,09,29,14.40
2015,06,24,09,30,14.60
2015,06,24,09,31,14.70
2015,06,24,09,32,14.80
2015,06,24,09,33,14.90
2015,06,24,09,34,15.10
2015,06,24,09,35,15.20
2015,06,24,09,36,15.20
2015,06,24,09,37,15.30
2015,06,24,09,38,15.30
2015,06,24,09,39,15.40
2015,06,24,09,40,15.40
2015,06,24,09,41,15.40
2015,06,24,09,42,15.40
2015,06,24,09,43,15.30
2015,06,24,09,44,15.20
2015,06,24,09,45,15.20
2015,06,24,09,46,15.00
2015,06,24,09,47,14.90
2015,06,24,09,48,14.80
2015,06,24,09,49,14.80
2015,06,24,09,50,14.80
2015,06,24,09,51,14.80
2015,06,24,09,52,14.90
2015,06,24,09,53,14.90
2015,06,24,09,54,15.00
2015,06,24,09,55,15.00
2015,06,24,09,56,15.00
2015,06,24,09,57,15.10
2015,06,24,09,58,15.10
2015,06,24,09,59,15.20
2015,06,24,10,00,15.20
2015,06,24,10,01,15.10
2015,06,24,10,02,15.10
2015,06,24,10,03,15.00
2015,06,24,10,04,14.80
2015,06,24,10,05,14.70
2015,06,24,10,06,14.60
2015,06,24,10,07,14.50
2015,06,24,10,08,14.40
2015,06,24,10,09,14.40
2015,06,24,10,10,14.40
2015,06,24,10,11,14.30
2015,06,24,10,12,14.30
2015,06,24,10,13,14.20
2015,06,24,10,14,14.10
2015,06,24,10,15,14.10
2015,06,24,10,16,14.00
2015,06,24,10,17,14.00
2015,06,24,10,18,13.90
2015,06,24,10,19,13.90
2015,06,24,10,20,14.00
2015,06,24,10,21,14.00
2015,06,24,10,22,14.10
2015,06,24,10,23,14.10
2015,06,24,10,24,14.20
2015,06,24,10,25,14.30
2015,06,24,10,26,14.30
2015,06,24,10,27,14.40
2015,06,24,10,28,14.40
2015,06,24,10,29,14.50
2015,06,24,10,30,14.50
2015,06,24,10,31,14.60
2015,06,24,10,32,14.60
2015,06,24,10,33,14.50
2015,06,24,10,34,14.50
2015,06,24,10,35,14.50
2015,06,24,10,36,14.40
2015,06,24,10,37,14.30
2015,06,24,10,38,14.30
2015,06,24,10,39,14.30
2015,06,24,10,40,14.30
2015,06,24,10,41,14.30
2015,06,24,10,42,14.20
2015,06,24,10,43,14.10
2015,06,24,10,44,14.10
2015,06,24,10,45,14.00
2015,06,24,10,46,13.90
2015,06,24,10,47,13.90
2015,06,24,10,48,13.80
2015,06,24,10,49,13.80
2015,06,24,10,50,13.80
2015,06,24,10,51,13.80
2015,06,24,10,52,13.80
2015,06,24,10,53,13.80
2015,06,24,10,54,13.80
2015,06,24,10,55,13.80
2015,06,24,10,56,13.90
2015,06,24,10,57,13.90
2015,06,24,10,58,13.90
2015,06,24,10,59,13.80
2015,06,24,11,00,13.80
2015,06,24,11,01,13.90
2015,06,24,11,02,13.90
2015,06,24,11,03,13.90
2015,06,24,11,04,14.00
2015,06,24,11,05,14.00
2015,06,24,11,06,14.00
2015,06,24,11,07,14.00
2015,06,24,11,08,14.10
2015,06,24,11,09,14.10
2015,06,24,11,10,14.10
2015,06,24,11,11,14.20
2015,06,24,11,12,14.20
2015,06,24,11,13,14.30
2015,06,24,11,14,14.30
2015,06,24,11,15,14.40
2015,06,24,11,16,14.50
2015,06,24,11,17,14.60
2015,06,24,11,18,14.70
2015,06,24,11,19,14.80
2015,06,24,11,20,14.90
2015,06,24,11,21,15.00
2015,06,24,11,22,15.10
2015,06,24,11,23,15.30
2015,06,24,11,24,15.40
2015,06,24,11,25,15.60
2015,06,24,11,26,15.80
2015,06,24,11,27,16.00
2015,06,24,11,28,16.10
2015,06,24,11,29,16.30
2015,06,24,11,30,16.40
2015,06,24,11,31,16.50
2015,06,24,11,32,16.60
2015,06,24,11,33,16.70
2015,06,24,11,34,16.80
2015,06,24,11,35,16.90
2015,06,24,11,36,17.10
2015,06,24,11,37,17.30
2015,06,24,11,38,17.50
2015,06,24,11,39,17.80
2015,06,24,11,40,18.10
2015,06,24,11,41,18.40
2015,06,24,11,42,18.70
2015,06,24,11,43,19.00
2015,06,24,11,44,19.20
2015,06,24,11,45,19.40
2015,06,24,11,46,19.60
2015,06,24,11,47,19.70
2015,06,24,11,48,19.80
2015,06,24,11,49,19.90
2015,06,24,11,50,20.00
2015,06,24,11,51,20.00
2015,06,24,11,52,20.10
2015,06,24,11,53,20.10
2015,06,24,11,54,20.10
2015,06,24,11,55,20.10
2015,06,24,11,56,20.10
2015,06,24,11,57,20.10
2015,06,24,11,58,20.10
2015,06,24,11,59,20.10
2015,06,24,12,00,20.00
2015,06,24,12,01,20.00
2015,06,24,12,02,20.00
2015,06,24,12,03,19.90
2015,06,24,12,04,19.90
2015,06,24,12,05,19.90
2015,06,24,12,06,19.80
2015,06,24,12,07,19.80
2015,06,24,12,08,19.80
2015,06,24,12,09,19.80
2015,06,24,12,10,19.80
2015,06,24,12,11,19.80
2015,06,24,12,12,19.80
2015,06,24,12,13,19.80
2015,06,24,12,14,19.80
2015,06,24,12,15,19.80
2015,06,24,12,16,19.80
2015,06,24,12,17,19.80
2015,06,24,12,18,19.80
2015,06,24,12,19,19.80
2015,06,24,12,20,19.80
2015,06,24,12,21,19.80
2015,06,24,12,22,19.90
2015,06,24,12,23,19.90
2015,06,24,12,24,19.90
2015,06,24,12,25,20.00
2015,06,24,12,26,20.00
2015,06,24,12,27,20.10
2015,06,24,12,28,20.10
2015,06,24,12,29,20.20
2015,06,24,12,30,20.20
2015,06,24,12,31,20.20
2015,06,24,12,32,20.30
2015,06,24,12,33,20.30
2015,06,24,12,34,20.30
2015,06,24,12,35,20.30
2015,06,24,12,36,20.30
2015,06,24,12,37,20.40
2015,06,24,12,38,20.40
2015,06,24,12,39,20.40
2015,06,24,12,40,20.30
2015,06,24,12,41,20.30
2015,06,24,12,42,20.30
2015,06,24,12,43,20.40
2015,06,24,12,44,20.30
2015,06,24,12,45,20.40
2015,06,24,12,46,20.30
2015,06,24,12,47,20.30
2015,06,24,12,48,20.30
2015,06,24,12,49,20.20
2015,06,24,12,50,20.20
2015,06,24,12,51,20.20
2015,06,24,12,52,20.10
2015,06,24,12,53,20.10
2015,06,24,12,54,20.00
2015,06,24,12,55,19.90
2015,06,24,12,56,19.90
2015,06,24,12,57,19.80
2015,06,24,12,58,19.80
2015,06,24,12,59,19.80
2015,06,24,13,00,19.80
2015,06,24,13,01,19.80
2015,06,24,13,02,19.80
2015,06,24,13,03,19.80
2015,06,24,13,04,19.80
2015,06,24,13,05,19.70
2015,06,24,13,06,19.70
2015,06,24,13,07,19.70
2015,06,24,13,08,19.70
2015,06,24,13,09,19.70
2015,06,24,13,10,19.70
2015,06,24,13,11,19.70
2015,06,24,13,12,19.70
2015,06,24,13,13,19.70
2015,06,24,13,14,19.70
2015,06,24,13,15,19.70
2015,06,24,13,16,19.70
2015,06,24,13,17,19.70
2015,06,24,13,18,19.70
2015,06,24,13,19,19.70
2015,06,24,13,20,19.70
2015,06,24,13,21,19.70
2015,06,24,13,22,19.70
2015,06,24,13,23,19.70
2015,06,24,13,24,19.70
2015,06,24,13,25,19.70
2015,06,24,13,26,19.80
2015,06,24,13,27,19.80
2015,06,24,13,28,19.80
2015,06,24,13,29,19.80
2015,06,24,13,30,19.80
2015,06,24,13,31,19.80
2015,06,24,13,32,19.80
2015,06,24,13,33,19.80
2015,06,24,13,34,19.80
2015,06,24,13,35,19.80
2015,06,24,13,36,19.80
2015,06,24,13,37,19.80
2015,06,24,13,38,19.80
2015,06,24,13,39,19.80
2015,06,24,13,40,19.80
2015,06,24,13,41,19.80
2015,06,24,13,42,19.90
2015,06,24,13,43,19.90
2015,06,24,13,44,19.90
2015,06,24,13,45,19.90
2015,06,24,13,46,19.90
2015,06,24,13,47,20.00
2015,06,24,13,48,20.00
2015,06,24,13,49,20.00
2015,06,24,13,50,20.10
2015,06,24,13,51,20.10
2015,06,24,13,52,20.10
2015,06,24,13,53,20.20
2015,06,24,13,54,20.20
2015,06,24,13,55,20.20
2015,06,24,13,56,20.30
2015,06,24,13,57,20.30
2015,06,24,13,58,20.30
2015,06,24,13,59,20.30
2015,06,24,14,00,20.30
2015,06,24,14,01,20.40
2015,06,24,14,02,20.40
2015,06,24,14,03,20.40
2015,06,24,14,04,20.40
2015,06,24,14,05,20.40
2015,06,24,14,06,20.50
2015,06,24,14,07,20.50
2015,06,24,14,08,20.50
2015,06,24,14,09,20.60
2015,06,24,14,10,20.70
2015,06,24,14,11,20.70
2015,06,24,14,12,20.80
2015,06,24,14,13,20.80
2015,06,24,14,14,20.80
2015,06,24,14,15,20.90
2015,06,24,14,16,20.90
2015,06,24,14,17,20.90
2015,06,24,14,18,20.90
2015,06,24,14,19,20.90
2015,06,24,14,20,20.90
2015,06,24,14,21,21.00
2015,06,24,14,22,21.00
2015,06,24,14,23,21.00
2015,06,24,14,24,21.00
2015,06,24,14,25,21.10
2015,06,24,14,26,21.10
2015,06,24,14,27,21.20
2015,06,24,14,28,21.20
2015,06,24,14,29,21.20
2015,06,24,14,30,21.20
2015,06,24,14,31,21.20
2015,06,24,14,32,21.20
2015,06,24,14,33,21.20
2015,06,24,14,34,21.10
2015,06,24,14,35,21.10
2015,06,24,14,36,21.10
2015,06,24,14,37,21.10
2015,06,24,14,38,21.10
2015,06,24,14,39,21.10
2015,06,24,14,40,21.20
2015,06,24,14,41,21.20
2015,06,24,14,42,21.20
2015,06,24,14,43,21.20
2015,06,24,14,44,21.20
2015,06,24,14,45,21.20
2015,06,24,14,46,21.20
2015,06,24,14,47,21.20
2015,06,24,14,48,21.20
2015,06,24,14,49,21.30
2015,06,24,14,50,21.30
2015,06,24,14,51,21.20
2015,06,24,14,52,21.20
2015,06,24,14,53,21.20
2015,06,24,14,54,21.30
2015,06,24,14,55,21.30
2015,06,24,14,56,21.30
2015,06,24,14,57,21.30
2015,06,24,14,58,21.30
2015,06,24,14,59,21.30
2015,06,24,15,00,21.30
2015,06,24,15,01,21.40
2015,06,24,15,02,21.50
2015,06,24,15,03,21.50
2015,06,24,15,04,21.60
2015,06,24,15,05,21.60
2015,06,24,15,06,21.70
2015,06,24,15,07,21.70
2015,06,24,15,08,21.70
2015,06,24,15,09,21.70
2015,06,24,15,10,21.70
2015,06,24,15,11,21.60
2015,06,24,15,12,21.60
2015,06,24,15,13,21.60
2015,06,24,15,14,21.50
2015,06,24,15,15,21.50
2015,06,24,15,16,21.50
2015,06,24,15,17,21.50
2015,06,24,15,18,21.50
2015,06,24,15,19,21.40
2015,06,24,15,20,21.40
2015,06,24,15,21,21.40
2015,06,24,15,22,21.40
2015,06,24,15,23,21.40
2015,06,24,15,24,21.30
2015,06,24,15,25,21.30
2015,06,24,15,26,21.30
2015,06,24,15,27,21.30
2015,06,24,15,28,21.30
2015,06,24,15,29,21.30
2015,06,24,15,30,21.40
2015,06,24,15,31,21.40
2015,06,24,15,32,21.40
2015,06,24,15,33,21.40
2015,06,24,15,34,21.50
2015,06,24,15,35,21.50
2015,06,24,15,36,21.50
2015,06,24,15,37,21.50
2015,06,24,15,38,21.40
2015,06,24,15,39,21.40
2015,06,24,15,40,21.50
2015,06,24,15,41,21.50
2015,06,24,15,42,21.60
2015,06,24,15,43,21.60
2015,06,24,15,44,21.60
2015,06,24,15,45,21.70
2015,06,24,15,46,21.70
2015,06,24,15,47,21.70
2015,06,24,15,48,21.80
2015,06,24,15,49,21.70
2015,06,24,15,50,21.70
2015,06,24,15,51,21.70
2015,06,24,15,52,21.70
2015,06,24,15,53,21.70
2015,06,24,15,54,21.70
2015,06,24,15,55,21.70
2015,06,24,15,56,21.80
2015,06,24,15,57,21.80
2015,06,24,15,58,21.80
2015,06,24,15,59,21.80
2015,06,24,16,00,21.80
2015,06,24,16,01,21.80
2015,06,24,16,02,21.90
2015,06,24,16,03,21.90
2015,06,24,16,04,22.00
2015,06,24,16,05,22.10
2015,06,24,16,06,22.10
2015,06,24,16,07,22.20
2015,06,24,16,08,22.30
2015,06,24,16,09,22.30
2015,06,24,16,10,22.30
2015,06,24,16,11,22.30
2015,06,24,16,12,22.30
2015,06,24,16,13,22.20
2015,06,24,16,14,22.20
2015,06,24,16,15,22.20
2015,06,24,16,16,22.20
2015,06,24,16,17,22.30
2015,06,24,16,18,22.30
2015,06,24,16,19,22.20
2015,06,24,16,20,22.10
2015,06,24,16,21,22.00
2015,06,24,16,22,22.10
2015,06,24,16,23,22.10
2015,06,24,16,24,22.10
2015,06,24,16,25,21.90
2015,06,24,16,26,21.70
2015,06,24,16,27,21.30
2015,06,24,16,28,21.00
2015,06,24,16,29,20.90
2015,06,24,16,30,20.90
2015,06,24,16,31,21.00
2015,06,24,16,32,21.10
2015,06,24,16,33,21.30
2015,06,24,16,34,21.30
2015,06,24,16,35,21.30
2015,06,24,16,36,21.30
2015,06,24,16,37,21.30
2015,06,24,16,38,21.30
2015,06,24,16,39,21.40
2015,06,24,16,40,21.50
2015,06,24,16,41,21.50
2015,06,24,16,42,21.60
2015,06,24,16,43,21.70
2015,06,24,16,44,21.80
2015,06,24,16,45,21.90
2015,06,24,16,46,21.90
2015,06,24,16,47,22.00
2015,06,24,16,48,22.10
2015,06,24,16,49,22.00
2015,06,24,16,50,22.00
2015,06,24,16,51,21.90
2015,06,24,16,52,21.90
2015,06,24,16,53,21.90
2015,06,24,16,54,21.90
2015,06,24,16,55,21.90
2015,06,24,16,56,22.00
2015,06,24,16,57,22.00
2015,06,24,16,58,22.10
2015,06,24,16,59,22.10
2015,06,24,17,00,22.10
2015,06,24,17,01,22.10
2015,06,24,17,02,22.10
2015,06,24,17,03,22.10
2015,06,24,17,04,22.20
2015,06,24,17,05,22.20
2015,06,24,17,06,22.10
2015,06,24,17,07,22.00
2015,06,24,17,08,22.00
2015,06,24,17,09,21.90
2015,06,24,17,10,21.90
2015,06,24,17,11,21.90
2015,06,24,17,12,21.70
2015,06,24,17,13,21.10
2015,06,24,17,14,20.50
2015,06,24,17,15,19.90
2015,06,24,17,16,19.30
2015,06,24,17,17,18.90
2015,06,24,17,18,18.70
2015,06,24,17,19,18.50